When you browse on this site, cookies collect data to enhance your experience and personalize the content and advertising you see.
Visit our Privacy Policy to learn more. By continuing to use the site, you agree to this use of cookies and data.
  • In Sweden
  • List of Countries
  • For 7 days
  • Water Temperature
  • Weather Map
  • Weather Widgets
  • user-avatar
    Login

    Hourly Weather Aguilar De Segarra

    Today, 18 November, Monday

    Time Temperature Precipitation Wind Pressure Humidity
    00:00 +4°C° 0 mm 1 mps 705 mmHg 80%
    01:00 +4°C° 0 mm 1 mps 705 mmHg 80%
    02:00 +4°C° 0 mm 1 mps 705 mmHg 80%
    03:00 +3°C° 0 mm 1 mps 705 mmHg 80%
    04:00 +3°C° 0 mm 1 mps 705 mmHg 80%
    05:00 +3°C° 0 mm 1 mps 705 mmHg 80%
    06:00 +3°C° 0 mm 1 mps 706 mmHg 79%
    07:00 +4°C° 0 mm 1 mps 706 mmHg 73%
    08:00 +6°C° 0 mm 1 mps 707 mmHg 68%
    09:00 +7°C° 0 mm 1 mps 707 mmHg 62%
    10:00 +8°C° 0 mm 1 mps 708 mmHg 59%
    11:00 +10°C° 0 mm 1 mps 708 mmHg 56%
    12:00 +10°C° 0 mm 2 mps 709 mmHg 54%
    13:00 +10°C° 0 mm 3 mps 709 mmHg 56%
    14:00 +10°C° 0 mm 3 mps 709 mmHg 57%
    15:00 +10°C° 0 mm 4 mps 709 mmHg 59%
    16:00 +7°C° 0 mm 4 mps 709 mmHg 65%
    17:00 +7°C° 0 mm 3 mps 709 mmHg 71%
    18:00 +5°C° 0 mm 2 mps 709 mmHg 77%
    19:00 +4°C° 0 mm 2 mps 709 mmHg 76%
    20:00 +4°C° 0 mm 2 mps 710 mmHg 75%
    21:00 +4°C° 0 mm 1 mps 710 mmHg 73%
    22:00 +4°C° 0 mm 1 mps 710 mmHg 71%
    23:00 +3°C° 0 mm 1 mps 710 mmHg 68%

    Tomorrow, 19 November, Tuesday

    Time Temperature Precipitation Wind Pressure Humidity
    00:00 +3°C° 0 mm 1 mps 710 mmHg 65%
    01:00 +3°C° 0 mm 1 mps 710 mmHg 65%
    02:00 +2°C° 0 mm 1 mps 710 mmHg 65%
    03:00 +2°C° 0 mm 1 mps 709 mmHg 64%
    04:00 +2°C° 0 mm 1 mps 710 mmHg 65%
    05:00 +1°C° 0 mm 1 mps 710 mmHg 65%
    06:00 -1°C° 0 mm 2 mps 710 mmHg 65%
    07:00 +3°C° 0 mm 1 mps 710 mmHg 60%
    08:00 +4°C° 0 mm 1 mps 711 mmHg 54%
    09:00 +5°C° 0 mm 1 mps 711 mmHg 49%
    10:00 +7°C° 0 mm 1 mps 711 mmHg 46%
    11:00 +8°C° 0 mm 1 mps 711 mmHg 43%
    12:00 +10°C° 0 mm 1 mps 711 mmHg 40%
    13:00 +8°C° 0 mm 2 mps 711 mmHg 42%
    14:00 +8°C° 0 mm 2 mps 710 mmHg 44%
    15:00 +8°C° 0 mm 2 mps 710 mmHg 46%
    16:00 +6°C° 0 mm 2 mps 710 mmHg 52%
    17:00 +5°C° 0 mm 1 mps 710 mmHg 58%
    18:00 +4°C° 0 mm 1 mps 710 mmHg 64%
    19:00 +4°C° 0 mm 1 mps 710 mmHg 63%
    20:00 +3°C° 0 mm 1 mps 711 mmHg 62%
    21:00 +3°C° 0 mm 1 mps 711 mmHg 61%
    22:00 +3°C° 0 mm 1 mps 711 mmHg 62%
    23:00 +3°C° 0 mm 1 mps 710 mmHg 63%

    Day after tomorrow, 20 November, Wednesday

    Time Temperature Precipitation Wind Pressure Humidity
    00:00 +3°C° 0 mm 1 mps 710 mmHg 63%
    01:00 +3°C° 0 mm 1 mps 710 mmHg 64%
    02:00 +3°C° 0 mm 1 mps 710 mmHg 64%
    03:00 +3°C° 0 mm 1 mps 709 mmHg 64%
    04:00 +3°C° 0 mm 1 mps 709 mmHg 65%
    05:00 +3°C° 0 mm 1 mps 709 mmHg 66%
    06:00 +2°C° 0 mm 1 mps 709 mmHg 66%
    07:00 +4°C° 0 mm 1 mps 709 mmHg 62%
    08:00 +4°C° 0 mm 0 mps 710 mmHg 58%
    09:00 +6°C° 0 mm 0 mps 710 mmHg 54%
    10:00 +8°C° 0 mm 1 mps 710 mmHg 52%
    11:00 +9°C° 0 mm 2 mps 710 mmHg 50%
    12:00 +10°C° 0 mm 2 mps 709 mmHg 48%
    13:00 +10°C° 0 mm 2 mps 709 mmHg 51%
    14:00 +10°C° 0 mm 2 mps 709 mmHg 53%
    15:00 +10°C° 0 mm 2 mps 708 mmHg 55%
    16:00 +8°C° 0 mm 2 mps 708 mmHg 62%
    17:00 +8°C° 0 mm 1 mps 708 mmHg 69%
    18:00 +6°C° 0 mm 1 mps 708 mmHg 76%
    19:00 +6°C° 0 mm 1 mps 708 mmHg 77%
    20:00 +6°C° 0 mm 1 mps 708 mmHg 78%
    21:00 +6°C° 0 mm 1 mps 708 mmHg 78%
    22:00 +6°C° 0 mm 1 mps 708 mmHg 79%
    23:00 +6°C° 0 mm 1 mps 708 mmHg 79%

    21 November, Thursday

    Time Temperature Precipitation Wind Pressure Humidity
    00:00 +5°C° 0 mm 1 mps 708 mmHg 79%
    01:00 +5°C° 0 mm 1 mps 708 mmHg 79%
    02:00 +5°C° 0 mm 1 mps 707 mmHg 79%
    03:00 +5°C° 0 mm 1 mps 707 mmHg 79%
    04:00 +4°C° 0 mm 1 mps 707 mmHg 79%
    05:00 +4°C° 0 mm 1 mps 707 mmHg 80%
    06:00 +4°C° 0 mm 1 mps 707 mmHg 80%
    07:00 +6°C° 0 mm 1 mps 707 mmHg 75%
    08:00 +7°C° 0 mm 1 mps 708 mmHg 70%
    09:00 +7°C° 0 mm 2 mps 708 mmHg 65%
    10:00 +9°C° 0 mm 2 mps 708 mmHg 61%
    11:00 +10°C° 0 mm 3 mps 708 mmHg 58%
    12:00 +11°C° 0 mm 4 mps 708 mmHg 54%
    13:00 +11°C° 0 mm 4 mps 708 mmHg 56%
    14:00 +11°C° 0 mm 4 mps 708 mmHg 57%
    15:00 +11°C° 0 mm 4 mps 707 mmHg 59%
    16:00 +9°C° 0 mm 3 mps 707 mmHg 65%
    17:00 +8°C° 0 mm 2 mps 707 mmHg 72%
    18:00 +8°C° 0 mm 1 mps 707 mmHg 78%
    19:00 +8°C° 0 mm 1 mps 707 mmHg 77%
    20:00 +8°C° 0 mm 1 mps 708 mmHg 76%
    21:00 +8°C° 0 mm 1 mps 708 mmHg 76%
    22:00 +8°C° 0 mm 1 mps 707 mmHg 76%
    23:00 +8°C° 0 mm 1 mps 707 mmHg 77%

    22 November, Friday

    Time Temperature Precipitation Wind Pressure Humidity
    00:00 +7°C° 0 mm 0 mps 707 mmHg 77%
    01:00 +7°C° 0.2 mm 0 mps 706 mmHg 81%
    02:00 +7°C° 0.2 mm 0 mps 706 mmHg 84%
    03:00 +8°C° 0.2 mm 1 mps 706 mmHg 88%
    04:00 +8°C° 0.6 mm 1 mps 705 mmHg 90%
    05:00 +8°C° 0.6 mm 1 mps 705 mmHg 92%
    06:00 +8°C° 0.6 mm 1 mps 705 mmHg 95%
    07:00 +8°C° 1.1 mm 1 mps 705 mmHg 95%
    08:00 +9°C° 1.1 mm 1 mps 705 mmHg 95%
    09:00 +9°C° 1.1 mm 1 mps 705 mmHg 95%
    10:00 +9°C° 0.2 mm 2 mps 705 mmHg 90%
    11:00 +10°C° 0.2 mm 2 mps 705 mmHg 85%
    12:00 +12°C° 0.2 mm 2 mps 704 mmHg 80%
    13:00 +12°C° 0.2 mm 2 mps 704 mmHg 80%
    14:00 +12°C° 0.2 mm 1 mps 704 mmHg 81%
    15:00 +11°C° 0.2 mm 1 mps 703 mmHg 82%
    16:00 +11°C° 0.2 mm 1 mps 703 mmHg 84%
    17:00 +10°C° 0.2 mm 1 mps 704 mmHg 86%
    18:00 +10°C° 0.2 mm 1 mps 704 mmHg 88%
    19:00 +9°C° 0 mm 1 mps 704 mmHg 89%
    20:00 +9°C° 0 mm 1 mps 704 mmHg 89%
    21:00 +7°C° 0 mm 2 mps 704 mmHg 89%
    22:00 +7°C° 0 mm 2 mps 704 mmHg 90%
    23:00 +6°C° 0 mm 2 mps 704 mmHg 90%

    23 November, Saturday

    Time Temperature Precipitation Wind Pressure Humidity
    00:00 +6°C° 0 mm 2 mps 704 mmHg 90%
    01:00 +5°C° 0 mm 2 mps 704 mmHg 90%
    02:00 +5°C° 0 mm 2 mps 704 mmHg 90%
    03:00 +5°C° 0 mm 2 mps 704 mmHg 90%
    04:00 +4°C° 0 mm 2 mps 704 mmHg 90%
    05:00 +4°C° 0 mm 2 mps 705 mmHg 90%
    06:00 +4°C° 0 mm 2 mps 705 mmHg 90%
    07:00 +5°C° 0 mm 2 mps 706 mmHg 85%
    08:00 +6°C° 0 mm 2 mps 707 mmHg 81%
    09:00 +7°C° 0 mm 2 mps 707 mmHg 77%
    10:00 +8°C° 0 mm 2 mps 707 mmHg 70%
    11:00 +9°C° 0 mm 3 mps 708 mmHg 63%
    12:00 +11°C° 0 mm 3 mps 708 mmHg 56%
    13:00 +11°C° 0 mm 3 mps 708 mmHg 54%
    14:00 +11°C° 0 mm 3 mps 708 mmHg 52%
    15:00 +12°C° 0 mm 3 mps 709 mmHg 49%
    16:00 +10°C° 0 mm 3 mps 709 mmHg 55%
    17:00 +8°C° 0 mm 3 mps 710 mmHg 60%
    18:00 +6°C° 0 mm 2 mps 711 mmHg 65%
    19:00 +6°C° 0 mm 2 mps 711 mmHg 66%
    20:00 +5°C° 0 mm 2 mps 712 mmHg 67%
    21:00 +6°C° 0 mm 1 mps 713 mmHg 68%
    22:00 +5°C° 0 mm 1 mps 713 mmHg 68%
    23:00 +5°C° 0 mm 1 mps 713 mmHg 67%
    Show more